| time (UTC) | temp F | wind direction | speed MPH | gust MPH | rain 1hr in | rain 24hr in | rain mn in | humidity % | barometer mb |
| 20260507073021 | 51 | 307 | 0.0 | 4.0 | 0.00 | 0.00 | 0.00 | 90 | 1024.7 |
| 20260507071519 | 51 | 338 | 1.0 | 3.0 | 0.00 | 0.00 | 0.00 | 91 | 1024.8 |
| 20260507070015 | 51 | 315 | 0.0 | 3.0 | 0.00 | 0.00 | 0.00 | 90 | 1024.7 |
| 20260507064513 | 51 | 300 | 0.0 | 2.0 | 0.00 | 0.00 | 0.00 | 90 | 1024.6 |
| 20260507063013 | 52 | 300 | 0.0 | 5.0 | 0.00 | 0.00 | 0.00 | 89 | 1024.7 |
| 20260507061512 | 52 | 310 | 1.0 | 4.0 | 0.00 | 0.00 | 0.00 | 90 | 1024.7 |
| 20260507060010 | 52 | 322 | 0.0 | 6.0 | 0.00 | 0.00 | 0.00 | 89 | 1024.9 |
| 20260507054510 | 52 | 334 | 1.0 | 5.0 | 0.00 | 0.00 | 0.00 | 91 | 1024.7 |
| 20260507053008 | 52 | 297 | 0.0 | 2.0 | 0.00 | 0.00 | 0.00 | 92 | 1024.8 |
| 20260507051507 | 52 | 293 | 0.0 | 0.0 | 0.00 | 0.00 | 0.00 | 91 | 1024.7 |
| 20260507050006 | 52 | 296 | 0.0 | 0.0 | 0.00 | 0.00 | 0.00 | 92 | 1024.8 |
| 20260507044505 | 52 | 300 | 0.0 | 2.0 | 0.00 | 0.00 | 0.00 | 94 | 1024.8 |
| 20260507043004 | 52 | 297 | 1.0 | 3.0 | 0.00 | 0.00 | 0.00 | 96 | 1024.7 |
| 20260507041506 | 53 | 295 | 0.0 | 0.0 | 0.00 | 0.00 | 0.00 | 97 | 1024.5 |
| 20260507040002 | 53 | 295 | 0.0 | 2.0 | 0.00 | 0.00 | 0.00 | 97 | 1024.5 |
| 20260507034502 | 53 | 295 | 0.0 | 4.0 | 0.00 | 0.00 | 0.00 | 97 | 1024.4 |
| 20260507033002 | 53 | 319 | 2.0 | 5.0 | 0.00 | 0.00 | 0.00 | 96 | 1024.3 |
| 20260507031502 | 53 | 298 | 1.0 | 3.0 | 0.00 | 0.00 | 0.00 | 96 | 1024.2 |
| 20260507030001 | 53 | 288 | 0.0 | 3.0 | 0.00 | 0.00 | 0.00 | 96 | 1024.2 |
| 20260507024606 | 53 | 299 | 2.0 | 5.0 | 0.00 | 0.00 | 0.00 | 96 | 1024.0 |
| 20260507023059 | 53 | 304 | 1.0 | 3.0 | 0.00 | 0.00 | 0.00 | 96 | 1024.2 |
| 20260507021601 | 53 | 311 | 2.0 | 5.0 | 0.00 | 0.00 | 0.00 | 96 | 1024.1 |
| 20260507020059 | 53 | 319 | 1.0 | 5.0 | 0.00 | 0.00 | 0.00 | 96 | 1024.3 |
| 20260507014600 | 53 | 290 | 1.0 | 5.0 | 0.00 | 0.00 | 0.00 | 96 | 1024.2 |
| 20260507013057 | 53 | 307 | 2.0 | 6.0 | 0.00 | 0.00 | 0.00 | 96 | 1024.3 |
| 20260507011556 | 54 | 301 | 2.0 | 5.0 | 0.00 | 0.00 | 0.00 | 95 | 1024.2 |
| 20260507010113 | 55 | 261 | 1.0 | 4.0 | 0.00 | 0.00 | 0.00 | 93 | 1024.3 |
| 20260507004555 | 55 | 276 | 1.0 | 5.0 | 0.00 | 0.00 | 0.00 | 91 | 1024.4 |
| 20260507003055 | 55 | 272 | 3.0 | 7.0 | 0.00 | 0.00 | 0.00 | 91 | 1024.3 |
| 20260507001559 | 56 | 262 | 1.0 | 5.0 | 0.00 | 0.00 | 0.00 | 92 | 1024.4 |
| 20260507000059 | 55 | 260 | 2.0 | 8.0 | 0.00 | 0.00 | 0.00 | 92 | 1024.4 |
| 20260506234559 | 55 | 272 | 1.0 | 8.0 | 0.00 | 0.00 | 0.00 | 93 | 1024.4 |
| 20260506233100 | 56 | 259 | 2.0 | 7.0 | 0.00 | 0.00 | 0.00 | 92 | 1024.4 |
| 20260506231551 | 55 | 258 | 2.0 | 9.0 | 0.00 | 0.00 | 0.00 | 93 | 1024.3 |
| 20260506230052 | 56 | 258 | 2.0 | 8.0 | 0.00 | 0.00 | 0.00 | 91 | 1024.5 |
| 20260506224552 | 56 | 253 | 1.0 | 6.0 | 0.00 | 0.00 | 0.00 | 93 | 1024.5 |
| 20260506223052 | 56 | 281 | 3.0 | 7.0 | 0.00 | 0.00 | 0.00 | 93 | 1024.6 |
| 20260506221549 | 55 | 264 | 4.0 | 8.0 | 0.00 | 0.00 | 0.00 | 92 | 1024.8 |
| 20260506220051 | 55 | 291 | 1.0 | 7.0 | 0.00 | 0.00 | 0.00 | 92 | 1024.7 |
| 20260506214550 | 56 | 284 | 3.0 | 7.0 | 0.00 | 0.00 | 0.00 | 92 | 1024.7 |
| 20260506213045 | 56 | 253 | 1.0 | 7.0 | 0.00 | 0.00 | 0.00 | 91 | 1024.6 |
| 20260506211551 | 55 | 260 | 1.0 | 8.0 | 0.00 | 0.00 | 0.00 | 93 | 1024.5 |
| 20260506210045 | 55 | 282 | 4.0 | 11.0 | 0.00 | 0.00 | 0.00 | 93 | 1024.5 |
| 20260506204544 | 55 | 275 | 1.0 | 7.0 | 0.00 | 0.00 | 0.00 | 96 | 1024.6 |
| 20260506203043 | 55 | 263 | 1.0 | 4.0 | 0.00 | 0.00 | 0.00 | 96 | 1024.5 |
| 20260506201542 | 54 | 266 | 0.0 | 5.0 | 0.00 | 0.00 | 0.00 | 96 | 1024.5 |
| 20260506200041 | 54 | 277 | 0.0 | 4.0 | 0.00 | 0.00 | 0.00 | 95 | 1024.5 |
| 20260506194539 | 54 | 263 | 3.0 | 6.0 | 0.00 | 0.00 | 0.00 | 94 | 1024.2 |
| 20260506193038 | 55 | 290 | 2.0 | 5.0 | 0.00 | 0.00 | 0.00 | 94 | 1024.1 |
| 20260506191538 | 55 | 271 | 0.0 | 5.0 | 0.00 | 0.00 | 0.00 | 94 | 1024.1 |
| 20260506190037 | 55 | 297 | 3.0 | 10.0 | 0.00 | 0.00 | 0.00 | 92 | 1024.1 |
| 20260506184535 | 56 | 249 | 2.0 | 9.0 | 0.00 | 0.00 | 0.00 | 92 | 1024.0 |
| 20260506183034 | 56 | 236 | 0.0 | 6.0 | 0.00 | 0.00 | 0.00 | 90 | 1023.7 |
| 20260506181531 | 55 | 304 | 3.0 | 5.0 | 0.00 | 0.00 | 0.00 | 90 | 1023.7 |
| 20260506180033 | 55 | 267 | 0.0 | 8.0 | 0.00 | 0.00 | 0.00 | 92 | 1023.8 |
| 20260506174529 | 55 | 284 | 1.0 | 6.0 | 0.00 | 0.00 | 0.00 | 92 | 1023.6 |
| 20260506173028 | 54 | 224 | 1.0 | 6.0 | 0.00 | 0.00 | 0.00 | 93 | 1023.6 |
| 20260506171531 | 54 | 280 | 1.0 | 6.0 | 0.00 | 0.00 | 0.00 | 94 | 1023.6 |
| 20260506170027 | 54 | 297 | 1.0 | 7.0 | 0.00 | 0.00 | 0.00 | 93 | 1023.5 |
| 20260506164525 | 54 | 303 | 3.0 | 8.0 | 0.00 | 0.00 | 0.00 | 92 | 1023.4 |
| 20260506163024 | 54 | 284 | 0.0 | 7.0 | 0.00 | 0.00 | 0.00 | 92 | 1023.3 |
| 20260506161524 | 55 | 266 | 1.0 | 6.0 | 0.00 | 0.00 | 0.00 | 92 | 1023.2 |
| 20260506160023 | 55 | 265 | 1.0 | 3.0 | 0.00 | 0.00 | 0.00 | 92 | 1023.0 |
| 20260506154518 | 54 | 222 | 0.0 | 6.0 | 0.00 | 0.00 | 0.00 | 93 | 1022.8 |
| 20260506153017 | 54 | 219 | 0.0 | 3.0 | 0.00 | 0.00 | 0.00 | 94 | 1022.7 |
| 20260506151516 | 54 | 260 | 0.0 | 3.0 | 0.00 | 0.00 | 0.00 | 94 | 1022.8 |
| 20260506150015 | 54 | 265 | 0.0 | 2.0 | 0.00 | 0.00 | 0.00 | 95 | 1022.8 |
| 20260506144525 | 53 | 251 | 0.0 | 1.0 | 0.00 | 0.00 | 0.00 | 95 | 1022.6 |
| 20260506143012 | 53 | 253 | 0.0 | 2.0 | 0.00 | 0.00 | 0.00 | 96 | 1022.3 |
| 20260506141512 | 53 | 267 | 0.0 | 3.0 | 0.00 | 0.00 | 0.00 | 96 | 1022.5 |
| 20260506140011 | 53 | 257 | 0.0 | 2.0 | 0.00 | 0.00 | 0.00 | 97 | 1022.2 |
| 20260506134509 | 53 | 257 | 0.0 | 0.0 | 0.00 | 0.00 | 0.00 | 97 | 1022.2 |
| 20260506133009 | 53 | 257 | 0.0 | 2.0 | 0.00 | 0.00 | 0.00 | 96 | 1022.2 |
| 20260506131508 | 53 | 260 | 0.0 | 1.0 | 0.00 | 0.00 | 0.00 | 96 | 1022.2 |
| 20260506130008 | 53 | 315 | 0.0 | 2.0 | 0.00 | 0.00 | 0.00 | 95 | 1022.3 |
| 20260506124505 | 53 | 323 | 0.0 | 4.0 | 0.00 | 0.00 | 0.00 | 94 | 1022.0 |
| 20260506123004 | 53 | 326 | 2.0 | 5.0 | 0.00 | 0.00 | 0.00 | 95 | 1022.0 |
| 20260506121503 | 53 | 318 | 1.0 | 4.0 | 0.00 | 0.00 | 0.00 | 95 | 1022.1 |
| 20260506120002 | 53 | 309 | 1.0 | 3.0 | 0.00 | 0.00 | 0.00 | 95 | 1021.8 |
| 20260506114606 | 53 | 309 | 1.0 | 4.0 | 0.00 | 0.00 | 0.00 | 95 | 1021.7 |
| 20260506113059 | 53 | 309 | 2.0 | 3.0 | 0.00 | 0.00 | 0.00 | 95 | 1021.6 |
| 20260506111557 | 53 | 322 | 1.0 | 4.0 | 0.00 | 0.00 | 0.00 | 94 | 1021.6 |
| 20260506110057 | 53 | 286 | 1.0 | 4.0 | 0.00 | 0.00 | 0.00 | 94 | 1021.6 |
| 20260506104604 | 53 | 288 | 0.0 | 2.0 | 0.00 | 0.00 | 0.00 | 94 | 1021.5 |
| 20260506103104 | 53 | 288 | 0.0 | 3.0 | 0.00 | 0.00 | 0.00 | 94 | 1021.3 |
| 20260506101554 | 53 | 282 | 0.0 | 2.0 | 0.00 | 0.00 | 0.00 | 94 | 1021.2 |
| 20260506100106 | 53 | 281 | 1.0 | 3.0 | 0.00 | 0.00 | 0.00 | 94 | 1021.2 |
| 20260506094601 | 53 | 282 | 1.0 | 4.0 | 0.00 | 0.00 | 0.00 | 94 | 1021.2 |
| 20260506093049 | 53 | 311 | 0.0 | 2.0 | 0.00 | 0.00 | 0.00 | 94 | 1021.1 |
| 20260506091549 | 53 | 317 | 0.0 | 2.0 | 0.00 | 0.00 | 0.00 | 94 | 1020.8 |
| 20260506090049 | 53 | 318 | 1.0 | 4.0 | 0.00 | 0.00 | 0.00 | 94 | 1021.0 |
| 20260506084552 | 53 | 249 | 0.0 | 0.0 | 0.00 | 0.00 | 0.00 | 96 | 1021.0 |
| 20260506083053 | 53 | 249 | 0.0 | 2.0 | 0.00 | 0.00 | 0.00 | 96 | 1020.9 |
| 20260506081600 | 54 | 281 | 0.0 | 0.0 | 0.00 | 0.00 | 0.00 | 95 | 1020.7 |